Regional Weather Roundup
Issued by NWS Sterling, VA

Home | Current Version | Previous Version | Graphics & Text | Print | Product List | Glossary On
Versions: 1 2 3 4 5 6 7 8 9 10 11 12 13 14 15 16 17 18 19 20 21 22 23 24 25 26 27 28 29 30 31 32 33 34 35 36 37 38 39 40 41 42 43 44 45 46 47 48 49 50
000
ASUS41 KLWX 061611
RWRLWX

REGIONAL WEATHER ROUNDUP
NATIONAL WEATHER SERVICE BALTIMORE MD/WASHINGTON DC
1200 PM EDT WED MAY 06 2015

Note: "FAIR" indicates few or no clouds below 12,000 feet
with no significant weather and/or obstructions to visibility.
 TC=TEMPERATURE CELSIUS

 * =Non NWS site. Station does not report precipitation (e.g. rain,
    snow, etc.), thunder, or fog.

DCZ001-MDZ009-015-VAZ040>042-051-053>054-061700-
WASHINGTON METRO

CITY           SKY/WX    TMP DP  RH WIND       PRES   REMARKS
WASHINGTON NAT MOSUNNY   80  65  59 NE8       30.22S
DULLES         MOSUNNY   80  63  55 NE7       30.21F
ANDREWS AFB    SUNNY     75  66  73 VRB7      30.21F
FT BELVOIR     SUNNY     77  66  67 VRB3      30.21F
QUANTICO       PTSUNNY   68  63  84 S5        30.23S
COLLEGE PARK*  SUNNY     77  63  61 E5        30.22S
LEESBURG*      SUNNY     79  66  65 N7        30.23F
MANASSAS*      SUNNY     79  63  57 NE6       30.21F
GAITHERSBURG*  SUNNY     75  63  64 E5        30.26S

$$

MDZ006>007-011-014-061700-
BALTIMORE METRO

CITY           SKY/WX    TMP DP  RH WIND       PRES   REMARKS
BWI AIRPORT    MOSUNNY   75  61  61 E8        30.22S
MD SCIENCE CTR   N/A     76  61  59 MISG      30.23F
MARTIN STATE   MOSUNNY   75  64  69 NE6       30.25S
ANNAPOLIS      MOSUNNY   71  63  75 SE8       30.23S
FORT MEADE*    SUNNY     73  61  64 E7        30.24F

$$

MDZ012-015-019>023-061700-
MARYLAND EASTERN SHORE

CITY           SKY/WX    TMP DP  RH WIND       PRES   REMARKS
OCEAN CITY     SUNNY     68  57  68 S8        30.24S
SALISBURY      SUNNY     78  57  48 VRB3      30.22S
BAY BRIDGE AP*   N/A    N/A N/A N/A NW8       30.23S
CAMBRIDGE*     SUNNY     77  59  53 CALM      30.22S
EASTON*        MOSUNNY   77  66  69 CALM      30.26S

$$

MDZ017>025-061700-
SOUTHERN MARYLAND

CITY           SKY/WX    TMP DP  RH WIND       PRES   REMARKS
PATUXENT RIVER PTSUNNY   70  59  68 SE6       30.22F
ST INIGOES     PTSUNNY   73  56  54 W5        30.22S
LEONARDTOWN*   SUNNY     72  59  64 CALM      30.24S

$$

MDZ003>005-061700-
NORTH CENTRAL MARYLAND

CITY           SKY/WX    TMP DP  RH WIND       PRES   REMARKS
FREDERICK*     MOSUNNY   81  61  50 NE6       30.25S
HAGERSTOWN APT CLOUDY    75  62  64 N13       30.23S
WESTMINSTER*   SUNNY     77  61  57 E5        30.24S

$$

MDZ501>502-061700-
WESTERN MARYLAND

CITY           SKY/WX    TMP DP  RH WIND       PRES   REMARKS
OAKLAND*       SUNNY     72  50  46 W8        30.29S
CUMBERLAND*    SUNNY     77  59  53 S6        30.25S

$$

VAZ025>031-061700-
SHENANDOAH VALLEY

CITY           SKY/WX    TMP DP  RH WIND       PRES   REMARKS
WINCHESTER*    SUNNY     79  57  47 NE5       30.22F
FRONT ROYAL*   FAIR      77  61  57 E3        30.21F
LURAY*         FAIR      81  63  54 NE5       30.22S
NEW MARKET*    FAIR      79  60  52 CALM      30.20F
STAUNTON*      MOSUNNY   77  59  54 CALM      30.25S
WAYNESBORO*    FAIR      76  62  61 SW3       30.25S

$$

WVZ021-048>050-054>055-061700-
EASTERN WEST VIRGINIA PANHANDLE

CITY           SKY/WX    TMP DP  RH WIND       PRES   REMARKS
MARTINSBURG    SUNNY     76  62  62 VRB5      30.23S
PETERSBURG*    MOSUNNY   81  53  37 E3        30.21F

$$

VAZ036>039-050-061700-
CENTRAL FOOTHILLS

CITY           SKY/WX    TMP DP  RH WIND       PRES   REMARKS
CHARLOTTESVILL MOSUNNY   79  64  60 VRB5      30.21S
CULPEPER*      SUNNY     76  65  68 E6        30.21F
ORANGE*        SUNNY     75  66  73 N5        30.23S
GORDONSVILLE*  FAIR      75  66  72 NE5       30.21S
WARRENTON*     FAIR      79  67  67 N5        30.21F

$$

VAZ055>057-061700-
NORTH AND CENTRAL PIEDMONT

CITY           SKY/WX    TMP DP  RH WIND       PRES   REMARKS
FREDERICKSBRG* SUNNY     76  66  72 CALM      30.21S
STAFFORD*      SUNNY     74  64  69 E7        30.26S

$$

NCZ024-NYZ072-PAZ021-071-VAZ022-071-061700-
OTHER REGIONAL OBSERVATIONS

CITY           SKY/WX    TMP DP  RH WIND       PRES   REMARKS
NEW YORK CITY  CLOUDY    66  41  40 NE7G17    30.32S
PHILADELPHIA   PTSUNNY   70  46  42 E13       30.27F
PITTSBURGH     MOSUNNY   76  60  57 VRB3      30.21F
ROANOKE        MOSUNNY   78  58  49 CALM      30.25F
RICHMOND       PTSUNNY   79  58  48 VRB6      30.21F
RALEIGH        PTSUNNY   77  57  50 VRB5      30.23F

$$

ANZ530>537-061700-
MARINE OBSERVATIONS

STATION/POSITION TIME  TEMP    WIND        PRES
                       AIR SEA DIR/SP/G
                 (UTC) (F)     (DEG/KT/KT) (MB)
THOMAS PT LIGHT  1600   65 62  210/  5/  5 1024.2S
BALT KEY BRIDGE  1500   67     120/  3/  5 1023.6R
COVE POINT       1500   63     160/  7/  8 1024.5R
LEWISETTA        1500   72 67              1023.2F
SOLOMONS ISLAND  1500      60                N/A
PINEY POINT      1500          110/  4/  4   N/A

$$



USA.gov is the U.S. government's official web portal to all federal, state and local government web resources and services.